Location: Neida
(50.3102°N, 10.8675°E)
Time: 07:11:12
(UTC+00:00)

Daily predictions for brighter satellites

Satellite Brightness Start Highest point End
(mag) Time Altitude Azimuth Time Altitude Azimuth Time Altitude Azimuth
COSMO-SKYMED 1 3.9 16:27:22 10° NE 16:30:38 20° E 16:33:52 10° SE
H-2A R/B 4.1 16:28:19 10° S 16:31:50 43° W 16:35:25 10° NNW
CORIOLIS 4.1 16:27:01 10° SSE 16:32:20 74° ENE 16:37:43 10° NNW
H-2A R/B 2.0 16:28:41 10° NNE 16:32:54 89° E 16:37:01 10° SSW
FengYun 1-2 T 4.3 16:27:57 10° SSE 16:33:30 61° ENE 16:39:03 10° N
Cosmos 1110 Rocket 4.2 16:29:28 10° S 16:34:32 51° ESE 16:39:35 10° NNE
NOSS 2-2 (C) 4.4 16:31:26 10° NW 16:36:37 68° NE 16:43:50 10° SE
Lacrosse 5 2.6 16:34:08 10° W 16:38:59 44° NNW 16:43:51 10° ENE
Timation 2 Rocket 4.1 16:32:35 10° NNW 16:39:11 74° NE 16:45:59 10° SE
Cosmos 1825 Rocket 3.5 16:35:36 10° N 16:40:05 72° E 16:44:29 10° SSE
ADEOS Rocket 3.4 16:36:34 10° NNE 16:42:55 85° WNW 16:49:58 10° SSW
Envisat 3.9 16:38:47 10° S 16:43:46 56° W 16:48:48 10° NNW
Cosmos 292 Rocket 4.2 16:39:20 10° S 16:43:49 41° ESE 16:48:22 10° NE
Aureole 3 4.1 16:42:15 10° SE 16:44:29 18° E 16:46:39 10° NE
Meteor 2-21 Rocket 4.5 16:38:39 10° N 16:44:51 68° ENE 16:50:57 10° SSE
FALCON 9 DEB 3.5 16:42:21 10° W 16:45:42 52° N 16:48:52 11° ENE
Okean O Rocket 1.9 16:41:29 10° S 16:45:50 74° WSW 16:50:12 10° NNW
YAOGAN 1 3.7 16:44:24 10° ESE 16:47:52 24° ENE 16:51:19 10° N
ERBS 3.7 16:45:08 10° WNW 16:48:04 28° N 16:51:02 10° NE
FALCON 9 DEB 4.2 16:45:51 10° SSW 16:48:38 27° SE 16:51:05 12° E
USA 281 3.6 16:42:07 10° SSE 16:48:39 71° WSW 16:55:15 10° NNW
Landsat 5 4.4 16:47:51 10° N 16:51:35 48° WNW 16:55:23 10° SW
FALCON 9 DEB 4.0 16:50:01 10° SSW 16:52:51 30° SE 16:55:10 13° E
Feng Yun 1-1 Rocket 4.4 16:48:19 10° SSE 16:54:11 69° ENE 17:00:05 10° NNW
CZ-2C R/B 3.9 16:49:05 10° SE 16:54:11 34° ENE 16:59:08 10° N
Cosmos 2219 3.3 16:48:45 10° NNW 16:54:30 64° ENE 17:00:12 10° SE
SMAP 3.7 16:50:08 10° S 16:54:44 62° WSW 16:59:23 10° NNW
Cosmos 1455 4.1 16:55:15 10° ESE 16:56:10 12° E 16:56:10 12° E
Cosmos 1726 Rocket 3.6 16:53:34 10° S 16:57:48 56° E 17:02:07 10° NNE
Cosmos 1943 Rocket 4.3 16:54:03 10° W 16:58:08 21° NW 17:02:14 10° N
Cosmos 1758 Rocket 4.3 16:54:29 10° NNW 16:58:50 59° W 17:03:07 10° S
Cosmos 1553 Rocket 4.5 16:55:08 10° SSE 17:00:53 38° E 17:06:34 10° NNE
USA 307 3.0 16:56:52 10° WNW 17:01:08 64° NNE 17:04:41 14° E
Cosmos 2082 4.3 16:57:41 10° NNW 17:03:03 38° NE 17:08:22 10° ESE
Meteor 2-10 Rocket 4.5 16:59:37 10° SE 17:03:49 25° E 17:07:56 10° NE
FALCON 9 DEB 3.8 17:01:49 10° SW 17:04:49 35° SSE 17:06:44 18° E
Cosmos 2228 2.9 17:00:37 10° S 17:04:52 86° ESE 17:09:11 10° N
CZ-4B R/B 1.2 17:01:37 10° NNE 17:04:53 82° ESE 17:08:03 10° SSW
Cosmos 1939 Rocket 2.8 17:01:45 10° SSE 17:05:39 60° ENE 17:09:30 10° N
USA 308 3.0 17:01:43 10° WNW 17:05:59 66° NNE 17:09:20 16° E
ATLAS 5 CENTAUR R/B 3.5 17:04:54 10° WNW 17:08:31 24° NNW 17:12:37 10° NE
Helios 1A Rocket 3.0 17:08:50 10° SE 17:12:50 52° ENE 17:16:50 10° N
Cosmos 1606 Rocket 3.6 17:09:03 10° SSW 17:13:26 83° WNW 17:17:52 10° N
GENESIS II 4.3 17:12:20 10° SW 17:16:23 85° NW 17:20:07 12° NE
FALCON 9 DEB 3.5 17:13:20 10° SW 17:16:25 44° SSE 17:17:56 24° E
ARGOS 4.0 17:13:09 10° ESE 17:17:42 29° ENE 17:22:18 10° N
SKYMED 2 3.6 17:14:43 10° NNE 17:19:02 56° E 17:23:17 10° S
Okean-O 2.7 17:14:58 10° SSE 17:19:17 55° ENE 17:23:39 10° N
Cosmos 1689 Rocket 2.1 17:17:29 10° NNE 17:20:19 48° E 17:23:06 10° S
SL-08 R/B 4.4 17:14:50 10° N 17:21:00 65° ENE 17:27:03 10° SSE
Cosmos 1656 4.0 17:17:12 10° S 17:22:27 45° ESE 17:27:49 10° NE
Cosmos 1745 Rocket 4.1 17:18:02 10° N 17:24:09 51° ENE 17:30:19 10° SSE
Cosmos 1400 Rocket 2.8 17:21:04 10° S 17:25:08 65° E 17:29:12 10° NNE
H-2A R/B 2.5 17:22:06 10° SE 17:27:09 42° ENE 17:32:17 10° N
PSLV R/B 4.0 17:23:11 10° NNE 17:27:19 55° E 17:31:23 10° S
Ariane Rocket 4.3 17:27:38 19° ENE 17:28:07 19° NE 17:31:40 10° NNE
Cosmos 2227 Rocket 2.1 17:22:46 10° NNW 17:28:28 85° ENE 17:34:08 10° SSE
GEOS 3 Rocket 3.8 17:24:32 15° ESE 17:28:51 59° NE 17:34:10 10° NW
Cosmos 2058 3.1 17:25:02 10° N 17:29:00 45° ENE 17:32:55 10° SSE
CZ-4 R/B 1.2 17:25:47 10° SSE 17:29:37 61° ENE 17:33:26 10° N
Cosmos 1892 2.6 17:26:30 10° N 17:30:22 63° ENE 17:34:14 10° SSE
Cosmos 2263 Rocket 3.4 17:29:17 10° NNW 17:33:54 24° NE 17:35:33 22° ENE
Cosmos 1408 2.8 17:31:02 10° N 17:34:34 45° ENE 17:37:15 16° SE
CSL-04 Rocket 3.9 17:30:09 10° SE 17:35:28 50° ENE 17:40:46 10° N
BREEZE-M DEB (TANK) 4.5 17:31:30 10° W 17:35:41 78° N 17:46:14 20° E
BREEZE-M R/B 3.5 17:27:44 10° W 17:35:55 78° S 17:37:09 33° ESE
NOSS 3-4 (A) 4.2 17:33:45 10° NW 17:40:12 46° NNE 17:44:11 25° E
NOSS 3-4 (C) 4.2 17:33:52 10° NW 17:40:17 45° NNE 17:44:16 25° E
CZ-4C R/B 3.7 17:34:56 10° NW 17:40:42 32° NNE 17:44:25 21° ENE
Meteor 2-1 Rocket 4.4 17:36:50 10° SSE 17:42:03 45° E 17:47:17 10° NNE
Cosmos 1300 3.8 17:39:54 10° SSW 17:43:34 45° WNW 17:47:16 10° N
Cosmos 2058 Rocket 3.3 17:42:19 10° SSW 17:46:49 76° WNW 17:51:22 10° N
Cosmos 1697 Rocket 3.1 17:41:55 10° S 17:47:04 39° ESE 17:49:37 25° ENE
SL-4 R/B 1.6 17:44:32 10° WNW 17:48:07 77° N 17:49:04 47° E
SeaSat 1 2.7 17:46:28 30° ESE 17:48:33 47° NE 17:53:18 10° NNW
CZ-2D R/B 3.7 17:44:50 10° S 17:48:36 62° W 17:52:24 10° NNW
Cosmos 1346 Rocket 2.6 17:45:18 10° N 17:49:19 78° ENE 17:53:18 10° SSE
CRYOSAT 2 4.4 17:46:30 10° NNE 17:51:15 52° E 17:56:00 10° SSE
Cosmos 1825 2.3 17:47:53 10° N 17:51:34 47° ENE 17:51:38 47° ENE
NOSS 3-3 (A) 4.3 17:46:23 10° S 17:51:48 41° ESE 17:54:17 29° ENE
USA 305 2.9 17:47:34 10° WNW 17:51:54 84° SSW 17:53:27 39° ESE
NOSS 3-3 (C) 4.3 17:46:29 10° S 17:51:56 41° ESE 17:54:24 29° ENE
Cosmos 1709 Rocket 4.2 17:47:44 10° N 17:53:56 50° ENE 17:59:42 12° SSE
USA 215 3.5 17:51:39 28° E 17:55:10 57° NNE 18:01:33 10° WNW
Cosmos 44 3.6 17:51:04 10° SW 17:55:35 62° NW 17:59:04 18° NNE
Cosmos 1315 Rocket 2.9 17:52:29 10° S 17:56:18 50° E 17:56:19 50° E
ERS-2 4.5 17:55:13 10° N 17:58:14 25° WNW 18:01:14 10° WSW
USA 306 2.9 17:53:59 10° WNW 17:58:18 79° SSW 17:59:35 44° SE
SJ-11-01 4.1 17:53:43 10° SSE 17:58:21 70° ENE 18:03:02 10° N
BREEZE-M R/B 3.7 17:57:58 10° W 18:02:01 79° S 18:05:18 33° ESE
ATLAS 2AS CENTAUR R/B 3.2 17:54:57 10° NW 18:02:23 49° NNE 18:05:17 33° E
Cosmos 968 Rocket 3.9 17:58:35 10° NNW 18:03:45 63° WSW 18:08:51 10° S
Cosmos 1340 4.3 18:00:37 10° NNW 18:04:05 35° W 18:07:33 10° SSW
SJ 16-02 3.7 18:03:47 10° NNE 18:04:08 11° NNE 18:04:08 11° NNE
HJ-1C 3.9 18:07:27 47° N 18:07:27 47° N 18:10:00 10° N
COSMO-SKYMED 1 3.4 18:02:51 10° N 18:07:05 51° WNW 18:11:17 10° SW
MOS 1 Rocket 3.2 18:03:17 10° NNE 18:07:54 61° E 18:12:47 10° S
Cosmos 2297 Rocket 3.3 18:02:49 10° NW 18:08:11 44° WSW 18:13:30 10° S
Cosmos 1076 Rocket 3.3 18:05:02 10° N 18:09:18 85° ENE 18:11:35 27° SSE
Cosmos 1980 Rocket 3.5 18:04:52 10° SSE 18:07:19 23° SSE 18:07:19 23° SSE
Cosmos 1777 Rocket 4.4 18:05:55 10° NNW 18:10:50 40° ENE 18:10:50 40° ENE
Cosmos 883 Rocket 4.4 18:05:50 10° SSE 18:11:49 56° E 18:17:47 10° NNE
Aureole 3 Rocket 4.3 18:08:32 10° SSW 18:12:34 49° WNW 18:18:10 10° N
Cosmos 2315 Rocket 4.1 18:09:56 10° SSE 18:15:51 49° E 18:21:48 10° NNE
CSL-04 Debris 4.2 18:10:27 10° SSE 18:15:53 81° WSW 18:21:25 10° NNW
S3M 3.9 18:10:14 10° S 18:16:21 90° ENE 18:22:34 10° N
Lacrosse 5 2.5 18:17:58 10° WNW 18:22:47 41° N 18:23:30 39° NNE
FALCON 9 DEB 3.9 18:19:30 10° WNW 18:22:07 49° WNW 18:22:07 49° WNW
YAOGAN 1 3.6 18:19:34 10° S 18:23:44 45° W 18:27:55 10° NNW
FALCON 9 DEB 4.3 18:21:17 10° WSW 18:23:30 40° W 18:23:30 40° W
ERBS 4.2 18:22:02 10° NW 18:24:02 24° NNW 18:24:02 24° NNW
Cosmos 2360 4.2 18:20:16 10° S 18:25:52 58° ESE 18:26:14 57° E
Cosmos 1812 Rocket 3.6 18:26:48 10° S 18:35:45 - N 18:30:36 67° SSW
Cosmos 1455 2.9 18:28:15 10° SSW 18:31:13 48° SW 18:31:13 48° SW
CZ-2C R/B 4.2 18:28:17 10° S 18:33:52 49° W 18:39:20 10° NNW
Cosmos 1503 Rocket 4.5 18:28:56 10° NNW 18:34:04 58° WSW 18:37:12 23° S
Meteor 2-3 Rocket 4.0 18:29:45 10° N 18:34:44 51° NE 18:34:44 51° NE
USA 307 3.7 18:37:02 10° WNW 18:40:52 46° SW 18:40:52 46° SW
Meteor 2-10 Rocket 4.3 18:40:25 10° SSW 18:45:34 51° WNW 18:50:34 10° N
USA 308 3.9 18:41:53 10° WNW 18:45:31 42° SW 18:45:31 42° SW
ATLAS 5 CENTAUR R/B 3.8 18:51:19 10° NW 18:54:51 19° N 18:55:00 19° N
ARGOS 3.8 18:54:41 25° SSW 18:57:41 54° W 19:03:02 10° NNW
Cosmos 2151 4.5 18:53:44 10° NNW 18:56:03 31° NNW 18:56:03 31° NNW
Cosmos 2369 3.8 18:57:05 10° SW 19:02:47 74° WNW 19:03:11 71° NNW
CZ-4 R/B 4.4 19:02:59 10° WSW 19:05:02 14° W 19:07:06 10° WNW
Ariane Rocket 3.6 19:07:51 50° NNW 19:07:51 50° NNW 19:11:39 10° NNW
H-2A R/B 3.6 19:01:42 10° SSW 19:06:39 36° W 19:11:40 10° NNW
Cosmos 1844 Rocket 4.3 19:02:27 10° NNW 19:05:18 23° N 19:05:18 23° N
Cosmos 2263 Rocket 2.7 19:12:49 10° NNW 19:17:16 56° NW 19:17:16 56° NW
SeaSat 1 3.9 19:26:16 33° WSW 19:26:16 33° WSW 19:30:40 10° NW
CZ-4C R/B 3.0 19:23:30 10° NW 19:29:36 64° N 19:29:36 64° N
Cosmos 1697 Rocket 3.7 19:25:39 10° WSW 19:31:00 43° NW 19:31:25 43° NW
NOSS 3-4 (A) 4.0 19:24:38 10° NW 19:31:31 66° SW 19:31:39 66° SW
NOSS 3-4 (C) 4.0 19:24:45 10° NW 19:31:38 66° SW 19:31:43 66° SW
USA 215 3.4 19:39:00 66° W 19:39:00 66° W 19:44:39 10° WNW
SJ 16-02 4.3 19:40:52 10° NNW 19:41:07 11° NNW 19:41:07 11° NNW
Cosmos 1980 Rocket 4.4 19:48:08 10° SW 19:49:11 16° SW 19:49:11 16° SW
ATLAS 2AS CENTAUR R/B 3.3 19:46:17 10° NW 19:52:43 56° W 19:52:43 56° W
Lacrosse 5 4.2 20:01:10 10° WNW 20:02:41 20° WNW 20:02:41 20° WNW
